�N����,����,�g�[���i���ԁj���x,�g�[�����x,��g�[���i���ցj���x,����
 2002/12/01, 0:00,15.6,70.3,11.1,11.8
 2002/12/01, 0:15,15.6,71.2,11,11.9
 2002/12/01, 0:30,15.7,71.7,11,11.9
 2002/12/01, 0:45,15.5,72.5,10.9,11.9
 2002/12/01, 1:00,15.2,71.7,11,12
 2002/12/01, 1:15,14.9,72.1,11,12
 2002/12/01, 1:30,14.6,72.1,10.9,12
 2002/12/01, 1:45,14.4,72.5,10.9,12
 2002/12/01, 2:00,14.3,73,10.8,12
 2002/12/01, 2:15,14,70.2,11,12
 2002/12/01, 2:30,14,71.2,10.9,12
 2002/12/01, 2:45,13.9,71.7,10.9,12.1
 2002/12/01, 3:00,13.8,71.9,10.8,12.2
 2002/12/01, 3:15,13.7,72.2,10.8,12.2
 2002/12/01, 3:30,13.6,72.7,10.7,12.2
 2002/12/01, 3:45,13.6,72.8,10.7,12.2
 2002/12/01, 4:00,13.5,73.1,10.6,12.2
 2002/12/01, 4:15,13.4,73.2,10.6,12.2
 2002/12/01, 4:30,13.3,73.4,10.6,12.2
 2002/12/01, 4:45,13.2,73.2,10.6,12.2
 2002/12/01, 5:00,13.2,73.5,10.6,12.2
 2002/12/01, 5:15,13.1,73.6,10.6,12.2
 2002/12/01, 5:30,13.1,73.5,10.6,12.2
 2002/12/01, 5:45,13,73.7,10.5,12.2
 2002/12/01, 6:00,13,73.7,10.5,12.2
 2002/12/01, 6:15,12.9,73.9,10.5,12.3
 2002/12/01, 6:30,12.8,73.8,10.5,12.3
 2002/12/01, 6:45,12.8,73.8,10.5,12.3
 2002/12/01, 7:00,13,73.5,10.5,12.3
 2002/12/01, 7:15,13,74.2,10.6,12.1
 2002/12/01, 7:30,12.8,73.7,10.5,12.2
 2002/12/01, 7:45,13.1,74.8,10.6,12.1
 2002/12/01, 8:00,13.4,78.9,10.7,12
 2002/12/01, 8:15,13.3,78.1,10.8,12
 2002/12/01, 8:30,13.3,76.9,10.8,11.9
 2002/12/01, 8:45,13.2,77,10.8,11.9
 2002/12/01, 9:00,13.2,76.6,10.8,11.6
 2002/12/01, 9:15,13.2,76.7,11,11.8
 2002/12/01, 9:30,13.2,76.6,11,11.8
 2002/12/01, 9:45,13.5,75.9,11,11.8
 2002/12/01,10:00,13.8,75.3,11,11.8
 2002/12/01,10:15,14.4,73.2,11.1,11.8
 2002/12/01,10:30,14.5,72.8,11.1,11.9
 2002/12/01,10:45,14.4,73.3,11.2,11.9
 2002/12/01,11:00,14.3,73.9,11.4,11.9
 2002/12/01,11:15,14.2,74.6,11.4,11.9
 2002/12/01,11:30,14.2,75.4,11.5,11.9
 2002/12/01,11:45,14.4,77.1,11.6,11.9
 2002/12/01,12:00,14.8,74.5,11.7,11.9
 2002/12/01,12:15,15.6,71.7,11.8,11.9
 2002/12/01,12:30,16.2,70,11.9,11.9
 2002/12/01,12:45,16.5,68.4,11.9,11.7
 2002/12/01,13:00,16.9,67.6,12,12
 2002/12/01,13:15,17,68.4,12.1,12
 2002/12/01,13:30,17,68.5,12.1,12
 2002/12/01,13:45,17.2,67.7,12.1,11.8
 2002/12/01,14:00,17.3,67.7,12.1,12
 2002/12/01,14:15,17.3,67.4,12.2,12.1
 2002/12/01,14:30,17.4,67.4,12.1,12.2
 2002/12/01,14:45,17.2,67.9,12.1,12.2
 2002/12/01,15:00,17.2,67.6,12.2,12.2
 2002/12/01,15:15,17.2,67.6,12.1,12.2
 2002/12/01,15:30,17.4,66.9,12.1,12.2
 2002/12/01,15:45,17.5,67.4,12.1,12.2
 2002/12/01,16:00,17.2,68.4,12.1,12.2
 2002/12/01,16:15,17.4,66.7,12.1,12.3
 2002/12/01,16:30,17.4,66.8,12.1,12.3
 2002/12/01,16:45,17.4,67.6,12.1,12.3
 2002/12/01,17:00,17.4,67.4,12.1,12.3
 2002/12/01,17:15,17.4,67.9,12.1,12.2
 2002/12/01,17:30,17.3,68.4,12.1,12.2
 2002/12/01,17:45,17.1,68.8,12,12.2
 2002/12/01,18:00,16.9,67.2,12,11.9
 2002/12/01,18:15,17,66.9,11.9,11.9
 2002/12/01,18:30,17.6,65.6,11.9,11.8
 2002/12/01,18:45,17.9,65.6,11.8,11.8
 2002/12/01,19:00,17.2,64.3,11.7,11.8
 2002/12/01,19:15,17,61.7,11.6,11.9
 2002/12/01,19:30,17.3,59.4,11.4,11.9
 2002/12/01,19:45,17,59.1,11.4,11.9
 2002/12/01,20:00,16.9,58.4,11.2,11.9
 2002/12/01,20:15,16.8,58,11.1,11.9
 2002/12/01,20:30,16.9,60.4,11.1,11.9
 2002/12/01,20:45,17.4,60.8,11.1,11.9
 2002/12/01,21:00,17.6,61.4,11,11.9
 2002/12/01,21:15,17.9,63.1,10.9,11.9
 2002/12/01,21:30,17.8,63.1,10.8,11.6
 2002/12/01,21:45,17.4,65.1,10.8,11.6
 2002/12/01,22:00,16.7,66.4,10.8,11.6
 2002/12/01,22:15,16.2,68.9,10.6,11.7
 2002/12/01,22:30,20.1,57.6,10.6,11.7
 2002/12/01,22:45,23,49.5,10.6,11.6
 2002/12/01,23:00,24,46.8,10.6,11.5
 2002/12/01,23:15,24.3,45.7,10.6,11.5
 2002/12/01,23:30,24,45.9,10.5,11.5
 2002/12/01,23:45,24.6,46.1,10.4,11.5
 2002/12/02, 0:00,20.8,53.8,10.5,11.5
 2002/12/02, 0:15,18.2,62.7,10.4,11.5
 2002/12/02, 0:30,17.4,65.1,10.4,11.6
 2002/12/02, 0:45,16.7,66.8,10.2,11.6
 2002/12/02, 1:00,16.2,67.4,10.2,11.6
 2002/12/02, 1:15,15.8,68.6,10.2,11.6
 2002/12/02, 1:30,15.4,69.1,10.2,11.6
 2002/12/02, 1:45,15.1,69.6,10.1,11.6
 2002/12/02, 2:00,14.9,70.2,10.2,11.6
 2002/12/02, 2:15,14.8,69.9,10.1,11.6
 2002/12/02, 2:30,14.5,70.1,10,11.6
 2002/12/02, 2:45,14.1,68.1,10,11.6
 2002/12/02, 3:00,14.1,69.3,9.9,11.6
 2002/12/02, 3:15,13.9,70,9.9,11.9
 2002/12/02, 3:30,13.8,70.8,9.9,12
 2002/12/02, 3:45,13.7,71.1,9.9,12
 2002/12/02, 4:00,13.6,71.2,9.8,12
 2002/12/02, 4:15,13.4,71.5,9.8,11.9
 2002/12/02, 4:30,13.4,71.6,9.7,11.9
 2002/12/02, 4:45,13.2,71.9,9.7,11.9
 2002/12/02, 5:00,13.2,71.9,9.7,11.9
 2002/12/02, 5:15,13.1,72.2,9.6,11.9
 2002/12/02, 5:30,13,72.3,9.6,11.9
 2002/12/02, 5:45,12.9,72.5,9.6,11.9
 2002/12/02, 6:00,12.8,73.2,9.7,11.9
 2002/12/02, 6:15,12.9,73.8,9.7,11.9
 2002/12/02, 6:30,13.1,73.9,9.7,11.9
 2002/12/02, 6:45,13,74.2,9.7,11.9
 2002/12/02, 7:00,13,74.9,9.7,11.9
 2002/12/02, 7:15,12.8,74.8,9.8,11.9
 2002/12/02, 7:30,13.9,77.6,9.9,11.9
 2002/12/02, 7:45,13.4,75.9,10.2,11.5
 2002/12/02, 8:00,13.4,76.4,10.4,11.4
 2002/12/02, 8:15,13.4,75.9,10.8,11.6
 2002/12/02, 8:30,13.5,76.9,11.2,11.7
 2002/12/02, 8:45,13.6,74.7,11.3,11.7
 2002/12/02, 9:00,13.3,72.6,11.3,11.6
 2002/12/02, 9:15,13.8,76.4,11.1,11.7
 2002/12/02, 9:30,13.9,77.4,11.2,11.7
 2002/12/02, 9:45,13.9,77.5,11.3,11.7
 2002/12/02,10:00,13.8,76.5,11.4,11.9
 2002/12/02,10:15,13.7,76.7,11.3,11.9
 2002/12/02,10:30,13.8,77.2,11.3,12
 2002/12/02,10:45,13.8,76,11.4,12
 2002/12/02,11:00,13.9,76.9,11.7,12
 2002/12/02,11:15,14.1,74.7,12.1,11.9
 2002/12/02,11:30,14.3,71.2,12.2,11.9
 2002/12/02,11:45,15.1,68.8,12.4,11.9
 2002/12/02,12:00,15.9,65.3,12.5,11.9
 2002/12/02,12:15,16.8,63.6,12.3,11.9
 2002/12/02,12:30,17.6,62,12.5,11.9
 2002/12/02,12:45,18,61.8,12.5,12
 2002/12/02,13:00,17.4,66.7,12.5,12
 2002/12/02,13:15,17,66.8,12.6,12
 2002/12/02,13:30,17.1,64.7,12.6,12
 2002/12/02,13:45,17.4,63.3,12.6,11.9
 2002/12/02,14:00,16.9,55.2,12.6,11.8
 2002/12/02,14:15,17.5,58.1,12.5,11.9
 2002/12/02,14:30,17.9,59.6,12.5,11.9
 2002/12/02,14:45,18,60.6,12.5,11.9
 2002/12/02,15:00,18.1,61,12.5,11.9
 2002/12/02,15:15,18.2,60.8,12.5,11.9
 2002/12/02,15:30,18,61.2,12.5,11.9
 2002/12/02,15:45,18.2,61,12.4,11.9
 2002/12/02,16:00,18.1,61.4,12.5,12.2
 2002/12/02,16:15,18.2,61.2,12.4,12.3
 2002/12/02,16:30,18.3,60.5,12.3,12.3
 2002/12/02,16:45,18.1,61,12.4,12.3
 2002/12/02,17:00,18.3,60.4,12.2,12.4
 2002/12/02,17:15,18.1,61.6,12.1,12.3
 2002/12/02,17:30,18.1,61.3,12.1,12.4
 2002/12/02,17:45,17.7,59.5,12.1,12.4
 2002/12/02,18:00,17.5,58.7,12.2,12.4
 2002/12/02,18:15,17.5,57.7,12.1,12.3
 2002/12/02,18:30,17.2,55.3,11.9,12.2
 2002/12/02,18:45,16.8,55.2,11.8,12.2
 2002/12/02,19:00,17.3,56.3,11.7,12.2
 2002/12/02,19:15,18.1,57.4,11.7,12.1
 2002/12/02,19:30,18.1,58.8,11.5,12.1
 2002/12/02,19:45,17.9,59.8,11.5,12.1
 2002/12/02,20:00,17.7,61.2,11.5,12.1
 2002/12/02,20:15,17.6,61.8,11.3,12.1
 2002/12/02,20:30,17.7,61.6,11.2,12.1
 2002/12/02,20:45,18,61.5,11.1,12.1
 2002/12/02,21:00,18.1,62.5,11.1,12.1
 2002/12/02,21:15,17.8,63.3,11.1,12.1
 2002/12/02,21:30,17.4,64,11,12.1
 2002/12/02,21:45,17.2,64.2,10.9,11.8
 2002/12/02,22:00,17.1,63.9,10.8,11.8
 2002/12/02,22:15,16.8,64.6,10.7,11.9
 2002/12/02,22:30,20.4,48,10.5,12
 2002/12/02,22:45,23.3,43.8,10.6,12
 2002/12/02,23:00,24.1,42.6,10.4,12
 2002/12/02,23:15,24.2,43.2,10.4,11.9
 2002/12/02,23:30,24.7,42.5,10.3,12
 2002/12/02,23:45,18.5,57.8,10.3,11.9
 2002/12/03, 0:00,17.5,61.2,10.2,12.1
 2002/12/03, 0:15,16.8,63,10.1,12.1
 2002/12/03, 0:30,16.3,64.7,10.1,12
 2002/12/03, 0:45,15.8,64.8,10.1,12
 2002/12/03, 1:00,15.5,65.8,10,12
 2002/12/03, 1:15,15.1,66.4,10.1,12
 2002/12/03, 1:30,14.9,66.3,10,11.9
 2002/12/03, 1:45,14.7,66.6,9.9,11.9
 2002/12/03, 2:00,14.5,67.2,9.9,11.9
 2002/12/03, 2:15,14.4,66.9,9.9,11.9
 2002/12/03, 2:30,14.2,67.2,9.8,11.8
 2002/12/03, 2:45,14.1,67.9,9.9,11.8
 2002/12/03, 3:00,13.9,68.1,9.7,11.8
 2002/12/03, 3:15,13.8,68.6,9.7,11.8
 2002/12/03, 3:30,13.6,68.9,9.7,11.8
 2002/12/03, 3:45,13.6,68.9,9.8,11.8
 2002/12/03, 4:00,13.4,69.2,9.6,11.8
 2002/12/03, 4:15,13.4,69.4,9.6,11.8
 2002/12/03, 4:30,13.2,69.4,9.6,11.8
 2002/12/03, 4:45,13.1,69.2,9.5,11.8
 2002/12/03, 5:00,13,69.5,9.5,11.8
 2002/12/03, 5:15,12.9,69.6,9.4,11.7
 2002/12/03, 5:30,12.8,69.8,9.3,11.7
 2002/12/03, 5:45,12.8,69.8,9.2,11.7
 2002/12/03, 6:00,12.6,69.9,9.2,11.7
 2002/12/03, 6:15,12.6,69.9,9.1,11.7
 2002/12/03, 6:30,12.4,70,9.1,11.7
 2002/12/03, 6:45,14.6,63,9,11.7
 2002/12/03, 7:00,18.1,49.6,8.9,11.7
 2002/12/03, 7:15,18.5,46.9,8.9,11.6
 2002/12/03, 7:30,20.3,44.4,8.8,11.5
 2002/12/03, 7:45,21.1,44.2,9.1,11.4
 2002/12/03, 8:00,18.1,52.5,9.5,11.4
 2002/12/03, 8:15,16.3,58.6,9.6,11.4
 2002/12/03, 8:30,15.8,59.6,9.8,11.5
 2002/12/03, 8:45,15.9,60.1,10,11.5
 2002/12/03, 9:00,16.2,60.9,10.3,11.5
 2002/12/03, 9:15,16.3,61.2,10.4,11.4
 2002/12/03, 9:30,16.3,61.9,10.5,11.5
 2002/12/03, 9:45,15.3,60.3,11,11.4
 2002/12/03,10:00,14.9,55.3,11.4,11.4
 2002/12/03,10:15,15.8,53,11.5,11.6
 2002/12/03,10:30,14.7,55.3,12.3,11.6
 2002/12/03,10:45,15.4,55.5,11.8,11.6
 2002/12/03,11:00,16,59.2,11.5,11.6
 2002/12/03,11:15,15.8,58,11.7,11.6
 2002/12/03,11:30,16,57.3,11.7,11.6
 2002/12/03,11:45,16.5,56.1,11.8,11.8
 2002/12/03,12:00,16.8,55.4,11.7,11.8
 2002/12/03,12:15,17.4,53.3,11.8,11.8
 2002/12/03,12:30,17.9,51.7,11.9,11.8
 2002/12/03,12:45,18.2,49.8,11.9,11.8
 2002/12/03,13:00,18.6,48.2,12,11.8
 2002/12/03,13:15,18.4,49.8,12.1,12.2
 2002/12/03,13:30,18.3,51.8,12.1,12.2
 2002/12/03,13:45,18.5,52.7,12.2,12.1
 2002/12/03,14:00,19.2,52.2,12.3,12.5
 2002/12/03,14:15,19.5,52,12.4,12.5
 2002/12/03,14:30,20,52,12.5,12.5
 2002/12/03,14:45,20.2,52.1,12.6,12.5
 2002/12/03,15:00,20.3,51.5,12.9,12.5
 2002/12/03,15:15,20,52.6,12.8,12.4
 2002/12/03,15:30,19.6,54.3,12.7,12.2
 2002/12/03,15:45,19.4,55,12.7,12.3
 2002/12/03,16:00,19.3,55.1,12.7,12.3
 2002/12/03,16:15,19,56,12.6,12.4
 2002/12/03,16:30,19,56.5,12.6,12.4
 2002/12/03,16:45,19,56.3,12.6,12.4
 2002/12/03,17:00,18.9,56.3,12.5,12.4
 2002/12/03,17:15,19.1,56.3,12.5,12.4
 2002/12/03,17:30,18.9,56.4,12.4,12.4
 2002/12/03,17:45,19,57,12.3,12.4
 2002/12/03,18:00,18.8,58.3,12.3,12.5
 2002/12/03,18:15,18.4,55.2,12.3,12.5
 2002/12/03,18:30,17.7,54.9,12.2,12.5
 2002/12/03,18:45,17.9,55.2,12.2,12.5
 2002/12/03,19:00,19.4,59,12.1,12.3
 2002/12/03,19:15,19.1,59.5,12.1,12.1
 2002/12/03,19:30,19.1,59.5,12.1,11.9
 2002/12/03,19:45,18.6,60.5,12.1,11.9
 2002/12/03,20:00,18.4,60,12.1,11.9
 2002/12/03,20:15,18.8,60.2,12.1,12.1
 2002/12/03,20:30,18.8,61.1,12.1,12.2
 2002/12/03,20:45,18.3,62.8,12.1,12.1
 2002/12/03,21:00,17.9,63.7,12,12.1
 2002/12/03,21:15,17.5,64.7,12,12.2
 2002/12/03,21:30,17.2,65,12,12.2
 2002/12/03,21:45,17,64.9,11.9,12.2
 2002/12/03,22:00,16.7,64.8,11.9,12.2
 2002/12/03,22:15,16.4,65.4,11.9,11.8
 2002/12/03,22:30,16.1,66,11.9,11.8
 2002/12/03,22:45,15.9,66.7,11.9,11.8
 2002/12/03,23:00,15.8,66.6,11.8,11.8
 2002/12/03,23:15,15.9,66.8,11.8,11.8
 2002/12/03,23:30,15.7,66.6,11.8,11.8
 2002/12/03,23:45,19.4,56.3,11.9,11.9
 2002/12/04, 0:00,23.5,44.7,11.8,11.9
 2002/12/04, 0:15,21.5,52.4,11.8,11.9
 2002/12/04, 0:30,17.8,61.4,11.8,11.9
 2002/12/04, 0:45,17.1,63.5,11.8,11.9
 2002/12/04, 1:00,16.6,64.6,11.8,12
 2002/12/04, 1:15,16.2,65.8,11.7,12
 2002/12/04, 1:30,15.9,66.7,11.7,12
 2002/12/04, 1:45,15.7,67.1,11.6,12
 2002/12/04, 2:00,15.5,67.5,11.6,12
 2002/12/04, 2:15,15.2,67.7,11.6,12
 2002/12/04, 2:30,15.1,67.7,11.5,12
 2002/12/04, 2:45,14.9,68.3,11.5,12.1
 2002/12/04, 3:00,14.8,68.7,11.5,12.1
 2002/12/04, 3:15,14.8,68.7,11.4,12.1
 2002/12/04, 3:30,14.6,68.5,11.4,12.1
 2002/12/04, 3:45,14.5,68.9,11.4,12.1
 2002/12/04, 4:00,14.4,69.1,11.4,12.1
 2002/12/04, 4:15,14.4,69.2,11.4,12.1
 2002/12/04, 4:30,14.3,69.5,11.4,12.2
 2002/12/04, 4:45,14.2,69.6,11.3,12.2
 2002/12/04, 5:00,14.2,69.7,11.3,12.2
 2002/12/04, 5:15,14.1,69.9,11.2,12.2
 2002/12/04, 5:30,14,69.9,11.3,12.2
 2002/12/04, 5:45,14,70.1,11.2,12.2
 2002/12/04, 6:00,13.9,70.4,11.2,12.2
 2002/12/04, 6:15,13.9,71.1,11.2,12.2
 2002/12/04, 6:30,14.2,71.4,11.2,12.2
 2002/12/04, 6:45,13.8,71.2,11.2,11.8
 2002/12/04, 7:00,14.8,76.1,11.3,12
 2002/12/04, 7:15,14.4,76.8,11.3,11.9
 2002/12/04, 7:30,14.2,74.9,11.3,11.7
 2002/12/04, 7:45,14.4,76.4,11.3,11.8
 2002/12/04, 8:00,14.3,75.6,11.3,11.8
 2002/12/04, 8:15,14.1,75.7,11.4,11.9
 2002/12/04, 8:30,14.2,75.4,11.5,12.1
 2002/12/04, 8:45,14.2,74.8,11.4,12.1
 2002/12/04, 9:00,14.4,74.1,11.7,12.1
 2002/12/04, 9:15,14.4,74.5,11.7,12
 2002/12/04, 9:30,14.9,72.4,11.7,12
 2002/12/04, 9:45,15.9,70.4,11.7,12
 2002/12/04,10:00,16.6,68.7,11.8,12
 2002/12/04,10:15,16.6,69.6,11.9,12
 2002/12/04,10:30,16.6,69.8,12.1,12
 2002/12/04,10:45,16.9,68.7,11.9,12
 2002/12/04,11:00,17.1,68.2,12,12
 2002/12/04,11:15,17.4,63.4,12.1,12
 2002/12/04,11:30,17.5,65.4,12.2,12
 2002/12/04,11:45,18,65.4,12.2,12.1
 2002/12/04,12:00,18.3,66.3,12.5,12.1
 2002/12/04,12:15,18.2,66.6,12.6,12.1
 2002/12/04,12:30,18.4,65.2,12.6,12.1
 2002/12/04,12:45,18.6,64.7,12.7,12.1
 2002/12/04,13:00,18.5,65.3,12.7,12.1
 2002/12/04,13:15,18.5,65.1,12.8,12.1
 2002/12/04,13:30,18.4,65.1,12.8,12.1
 2002/12/04,13:45,18.4,65,12.7,12.1
 2002/12/04,14:00,18.4,64.9,12.7,12.2
 2002/12/04,14:15,18.5,64.7,12.7,12.2
 2002/12/04,14:30,18.7,64.1,12.8,12.2
 2002/12/04,14:45,18.8,64.2,12.9,12.4
 2002/12/04,15:00,18.6,64.5,12.9,12.5
 2002/12/04,15:15,18.9,64.4,12.9,12.4
 2002/12/04,15:30,18.8,64.3,12.9,12.6
 2002/12/04,15:45,18.9,64.4,12.9,12.7
 2002/12/04,16:00,18.9,64.6,12.9,12.7
 2002/12/04,16:15,19,64.4,12.9,12.7
 2002/12/04,16:30,19,64.2,12.9,12.7
 2002/12/04,16:45,19.1,64,13,12.8
 2002/12/04,17:00,19.1,63.9,13,12.8
 2002/12/04,17:15,19.2,63,13,12.8
 2002/12/04,17:30,19.2,63.5,13,12.4
 2002/12/04,17:45,19.6,63.3,13.1,12.8
 2002/12/04,18:00,18.8,61.4,13,12.8
 2002/12/04,18:15,18.4,61.5,13,12.8
 2002/12/04,18:30,18.2,61.5,13,12.8
 2002/12/04,18:45,18,61.8,13.1,12.8
 2002/12/04,19:00,19.3,63.5,13,12.8
 2002/12/04,19:15,19.5,64.7,13,12.7
 2002/12/04,19:30,19.5,66,13.1,12.7
 2002/12/04,19:45,19.7,65.9,13.1,12.2
 2002/12/04,20:00,19.4,66.5,13.1,12.2
 2002/12/04,20:15,19.5,66.1,13.1,12.2
 2002/12/04,20:30,19.5,66,13.1,12.2
 2002/12/04,20:45,19.5,65.4,13.2,12.2
 2002/12/04,21:00,19.4,65.6,13.3,12.3
 2002/12/04,21:15,19.2,65.7,13.2,12.3
 2002/12/04,21:30,19.2,65.8,13.2,12.3
 2002/12/04,21:45,19.4,65.1,13.2,12.3
 2002/12/04,22:00,19.4,64.9,13.3,12.3
 2002/12/04,22:15,19.4,64.8,13.2,12.4
 2002/12/04,22:30,19.4,64.7,13.2,12.4
 2002/12/04,22:45,19.5,63.8,13.2,12.4
 2002/12/04,23:00,19.5,64,13.2,12.5
 2002/12/04,23:15,19.1,65.4,13.2,12.5
 2002/12/04,23:30,18.6,67.5,13.2,12.5
 2002/12/04,23:45,18.4,67.9,13.2,12.5
 2002/12/05, 0:00,18.2,68.4,13.2,12.6
 2002/12/05, 0:15,18,69.1,13.1,12.6
 2002/12/05, 0:30,17.9,68.5,13.3,12.6
 2002/12/05, 0:45,17.8,69.1,13.2,12.6
 2002/12/05, 1:00,17.7,69.7,13.2,12.6
 2002/12/05, 1:15,17.5,70.2,13.2,12.6
 2002/12/05, 1:30,17.5,69,13.4,12.6
 2002/12/05, 1:45,17.2,69.8,13.3,12.7
 2002/12/05, 2:00,17,70.1,13.2,13
 2002/12/05, 2:15,16.9,70.2,13.2,12.9
 2002/12/05, 2:30,16.8,70.4,13.2,12.8
 2002/12/05, 2:45,16.5,70.6,13.2,12.8
 2002/12/05, 3:00,16.4,70.8,13.1,12.8
 2002/12/05, 3:15,16.4,71.6,13.1,12.8
 2002/12/05, 3:30,16.2,71.5,13.1,12.9
 2002/12/05, 3:45,16.1,71.8,13.1,12.9
 2002/12/05, 4:00,16,72.1,13.1,12.9
 2002/12/05, 4:15,15.9,72.2,13,12.9
 2002/12/05, 4:30,15.8,72.4,13,12.9
 2002/12/05, 4:45,15.8,72.6,13,13
 2002/12/05, 5:00,15.7,72.8,12.9,13
 2002/12/05, 5:15,15.6,72.8,12.9,13
 2002/12/05, 5:30,15.5,73,12.9,13
 2002/12/05, 5:45,15.4,73.1,12.9,13.1
 2002/12/05, 6:00,15.4,74,12.8,13.1
 2002/12/05, 6:15,15.4,74.7,12.9,13.1
 2002/12/05, 6:30,15.3,74.7,12.8,13.1
 2002/12/05, 6:45,15.2,74.3,12.8,13.1
 2002/12/05, 7:00,15.1,74.4,12.7,12.6
 2002/12/05, 7:15,15.1,74.4,12.8,12.6
 2002/12/05, 7:30,15.2,74.6,12.9,12.6
 2002/12/05, 7:45,21.9,54.2,12.9,12.5
 2002/12/05, 8:00,21.9,51.9,13,12.3
 2002/12/05, 8:15,23.1,50.5,12.9,12.1
 2002/12/05, 8:30,24.8,48.2,13,12.2
 2002/12/05, 8:45,22.5,54.5,13.1,12.2
 2002/12/05, 9:00,18.6,65.5,13.4,12.5
 2002/12/05, 9:15,17.8,69.8,13.5,12.6
 2002/12/05, 9:30,17.1,69.2,13.7,12.6
 2002/12/05, 9:45,17.4,69.2,13.6,12.6
 2002/12/05,10:00,18,67.9,13.8,12.6
 2002/12/05,10:15,18.5,66.2,13.8,12.6
 2002/12/05,10:30,18.5,66.4,13.9,12.6
 2002/12/05,10:45,18.6,66.2,13.9,12.6
 2002/12/05,11:00,19,65.5,14,12.7
 2002/12/05,11:15,19.1,66.8,14.1,12.6
 2002/12/05,11:30,19.2,67.2,14.2,12.5
 2002/12/05,11:45,19.3,67.4,14.2,12.5
 2002/12/05,12:00,19.4,69.5,14.3,12.5
 2002/12/05,12:15,19.7,68.4,14.5,12.6
 2002/12/05,12:30,19.9,66.9,14.6,12.6
 2002/12/05,12:45,20.3,69.2,14.6,12.6
 2002/12/05,13:00,20.5,67.8,14.8,12.6
 2002/12/05,13:15,20.5,70.2,14.9,12.7
 2002/12/05,13:30,20.3,70.5,14.9,12.7
 2002/12/05,13:45,20.8,67.8,14.9,12.7
 2002/12/05,14:00,21.7,64.4,15,12.8
 2002/12/05,14:15,22.2,63.2,15.1,12.8
 2002/12/05,14:30,22.7,62,15.1,12.8
 2002/12/05,14:45,23,60.3,15.3,12.9
 2002/12/05,15:00,23.2,59.2,15.3,13.1
 2002/12/05,15:15,23.3,56.7,15.3,13.1
 2002/12/05,15:30,23,58.4,15.3,13.1
 2002/12/05,15:45,22.5,59.9,15.3,13.1
 2002/12/05,16:00,22.2,60.7,15.4,13.2
 2002/12/05,16:15,22,61.9,15.2,13.2
 2002/12/05,16:30,21.8,62.9,15.2,13.2
 2002/12/05,16:45,21.6,63.5,15.1,13.2
 2002/12/05,17:00,21.2,62,15.5,13.3
 2002/12/05,17:15,21.8,63.8,15.2,13.2
 2002/12/05,17:30,22.1,64.3,15.1,13.2
 2002/12/05,17:45,22,63.2,15,13.2
 2002/12/05,18:00,21.8,64.5,15,13.2
 2002/12/05,18:15,21.8,64.7,15.1,13.1
 2002/12/05,18:30,20.5,62.2,15,12.9
 2002/12/05,18:45,22,61.5,14.9,12.9
 2002/12/05,19:00,21.4,65,14.8,12.9
 2002/12/05,19:15,21.2,65.5,14.8,12.8
 2002/12/05,19:30,21,66.2,14.6,12.9
 2002/12/05,19:45,20.9,66.2,14.6,12.9
 2002/12/05,20:00,21,67.8,14.6,12.9
 2002/12/05,20:15,21,67.4,14.5,12.8
 2002/12/05,20:30,20.7,67.9,14.5,12.8
 2002/12/05,20:45,20.3,68.3,14.4,12.8
 2002/12/05,21:00,19.8,69.1,14.4,12.7
 2002/12/05,21:15,19.5,69.7,14.4,12.7
 2002/12/05,21:30,19.2,70.2,14.3,12.7
 2002/12/05,21:45,19.1,70.2,14.2,12.7
 2002/12/05,22:00,18.9,70.6,14.2,12.6
 2002/12/05,22:15,18.8,71.3,14.2,12.7
 2002/12/05,22:30,18.7,71.9,14.2,12.7
 2002/12/05,22:45,18.6,72.2,14.1,12.7
 2002/12/05,23:00,18.7,72.1,14.1,12.7
 2002/12/05,23:15,19.1,74.6,14.1,12.8
 2002/12/05,23:30,19,75.9,14,12.8
 2002/12/05,23:45,18.9,74.9,14.1,12.8
 2002/12/06, 0:00,18.8,74.1,13.9,12.8
 2002/12/06, 0:15,18.6,73.2,14,12.6
 2002/12/06, 0:30,18,71.2,14.2,12.5
 2002/12/06, 0:45,17.9,72.2,13.9,12.6
 2002/12/06, 1:00,17.7,72.7,13.8,12.8
 2002/12/06, 1:15,17.5,73.1,13.8,12.8
 2002/12/06, 1:30,17.4,73.3,13.7,12.8
 2002/12/06, 1:45,17.2,73.6,13.6,12.9
 2002/12/06, 2:00,17.2,73.6,13.5,12.9
 2002/12/06, 2:15,17,73.2,13.4,12.9
 2002/12/06, 2:30,16.9,73.3,13.5,12.9
 2002/12/06, 2:45,16.8,73.6,13.4,12.9
 2002/12/06, 3:00,16.6,73.7,13.3,13
 2002/12/06, 3:15,16.5,73.9,13.2,13
 2002/12/06, 3:30,16.4,73.9,13.2,13
 2002/12/06, 3:45,16.4,73.9,13.1,13
 2002/12/06, 4:00,16.3,74.2,13,13
 2002/12/06, 4:15,16.1,74.2,13,13
 2002/12/06, 4:30,16,74.2,12.9,13.1
 2002/12/06, 4:45,15.9,74.2,12.8,13.1
 2002/12/06, 5:00,15.8,74,12.8,13.1
 2002/12/06, 5:15,15.8,74.1,12.8,13.1
 2002/12/06, 5:30,15.6,74.2,12.7,13.1
 2002/12/06, 5:45,15.6,74.1,12.6,13.1
 2002/12/06, 6:00,15.5,74.3,12.7,13.1
 2002/12/06, 6:15,15.4,74.9,12.6,13.1
 2002/12/06, 6:30,15.4,75,12.5,13.2
 2002/12/06, 6:45,15.3,74.9,12.5,13.2
 2002/12/06, 7:00,15.2,74.5,12.4,13.2
 2002/12/06, 7:15,15.1,74.7,12.3,13.2
 2002/12/06, 7:30,15,74.7,12.3,13.2
 2002/12/06, 7:45,14.6,71.2,12.2,12.4
 2002/12/06, 8:00,15.4,72.2,12.3,12.3
 2002/12/06, 8:15,15.2,66.8,12.6,12.2
 2002/12/06, 8:30,15.4,65.8,12.8,12.2
 2002/12/06, 8:45,15.6,65.8,12.8,12.2
 2002/12/06, 9:00,15.6,65.7,12.8,12.2
 2002/12/06, 9:15,15.4,65.4,12.7,12.2
 2002/12/06, 9:30,15.9,63.8,12.4,12.2
 2002/12/06, 9:45,16.3,64,12.2,12.4
 2002/12/06,10:00,16.9,63.2,12.1,12.6
 2002/12/06,10:15,17.2,63.8,12.1,12.7
 2002/12/06,10:30,17.3,65.2,12.1,12.5
 2002/12/06,10:45,17.2,65.8,12.1,12.5
 2002/12/06,11:00,17.1,66.7,12.2,12.3
 2002/12/06,11:15,16.9,65.3,12.3,12.7
 2002/12/06,11:30,17.1,64.7,12.2,12.4
 2002/12/06,11:45,17.2,64.3,12.3,12.6
 2002/12/06,12:00,17.2,65,12.2,12.7
 2002/12/06,12:15,17.5,64,12.2,12.7
 2002/12/06,12:30,17.9,63.2,12.3,12.7
 2002/12/06,12:45,18,63.4,12.2,12.9
 2002/12/06,13:00,19.3,78.7,12.2,12.9
 2002/12/06,13:15,19.1,73.6,12.1,12.9
 2002/12/06,13:30,18.9,68.9,12.2,12.8
 2002/12/06,13:45,18.8,67.3,12.1,12.6
 2002/12/06,14:00,18.8,66.1,12.1,12.7
 2002/12/06,14:15,19.4,63.5,12.1,12.7
 2002/12/06,14:30,19.5,62.5,12,12.7
 2002/12/06,14:45,19.5,61.9,12,12.7
 2002/12/06,15:00,19.6,61.1,11.9,12.7
 2002/12/06,15:15,19.3,61.7,11.9,12.7
 2002/12/06,15:30,19.4,60.8,11.9,12.7
 2002/12/06,15:45,19.4,60.3,11.9,12.3
 2002/12/06,16:00,19.3,59.2,11.8,12.5
 2002/12/06,16:15,19.1,59.8,11.8,12.5
 2002/12/06,16:30,19,60,11.6,12.5
 2002/12/06,16:45,18.9,60,11.6,12.5
 2002/12/06,17:00,18.6,59.9,11.4,12.5
 2002/12/06,17:15,18.5,60,11.4,12.8
 2002/12/06,17:30,18.6,60.4,11.3,12.8
 2002/12/06,17:45,17.1,55.6,11.3,12.8
 2002/12/06,18:00,17,53.9,11.2,12.8
 2002/12/06,18:15,16.7,53,11,12.6
 2002/12/06,18:30,16.5,53.1,10.9,12.5
 2002/12/06,18:45,16.1,53.2,10.9,12.5
 2002/12/06,19:00,16,53,10.8,12.5
 2002/12/06,19:15,16,52.5,10.7,12.5
 2002/12/06,19:30,17.6,55.2,10.6,12.5
 2002/12/06,19:45,17.5,56.3,10.6,12.4
 2002/12/06,20:00,17.1,58.2,10.4,12.3
 2002/12/06,20:15,16.7,61.2,10.4,12.3
 2002/12/06,20:30,16.5,63,10.3,12
 2002/12/06,20:45,16.5,62.8,10.2,12
 2002/12/06,21:00,16.2,63,10.1,12
 2002/12/06,21:15,16,63.5,10.1,11.9
 2002/12/06,21:30,15.9,63.6,10,12
 2002/12/06,21:45,15.8,63.8,10,11.9
 2002/12/06,22:00,15.7,63.7,10,11.9
 2002/12/06,22:15,15.4,64,10,11.8
 2002/12/06,22:30,15.1,64.4,10,12
 2002/12/06,22:45,14.9,65,9.9,12.1
 2002/12/06,23:00,14.8,64.5,9.8,12
 2002/12/06,23:15,14.6,65.2,9.8,12
 2002/12/06,23:30,14.5,65.4,9.8,12
 2002/12/06,23:45,14.4,65.8,9.8,12
 2002/12/07, 0:00,14.8,65.7,9.8,12
 2002/12/07, 0:15,14.9,68.6,9.8,12.2
 2002/12/07, 0:30,14.8,68.5,9.8,12.5
 2002/12/07, 0:45,14.6,66.9,9.8,12.5
 2002/12/07, 1:00,14.2,67.3,9.7,12.5
 2002/12/07, 1:15,13.9,67.4,9.8,12.6
 2002/12/07, 1:30,13.7,67.4,9.8,12.6
 2002/12/07, 1:45,13.6,67.5,9.8,12.6
 2002/12/07, 2:00,13.4,67.8,9.7,12.6
 2002/12/07, 2:15,13.2,67.3,9.6,12.6
 2002/12/07, 2:30,12.8,66.6,9.8,12.5
 2002/12/07, 2:45,12.9,67.2,9.6,12
 2002/12/07, 3:00,12.8,67.5,9.6,12.2
 2002/12/07, 3:15,12.4,66.8,9.7,12.2
 2002/12/07, 3:30,12.2,67.6,9.7,11.8
 2002/12/07, 3:45,12.1,67.7,9.8,12.2
 2002/12/07, 4:00,12,67.9,9.8,12.2
 2002/12/07, 4:15,11.9,68,9.8,12.1
 2002/12/07, 4:30,11.7,68.1,9.7,12.1
 2002/12/07, 4:45,11.6,68.2,9.6,12.1
 2002/12/07, 5:00,11.5,68.3,9.6,12.1
 2002/12/07, 5:15,11.4,68.4,9.6,12.1
 2002/12/07, 5:30,11.3,68.6,9.5,12
 2002/12/07, 5:45,11.3,68.7,9.5,12
 2002/12/07, 6:00,11.2,69.6,9.5,12
 2002/12/07, 6:15,11.2,69.9,9.5,12
 2002/12/07, 6:30,11.1,70,9.4,12
 2002/12/07, 6:45,11.1,69.8,9.4,11.9
 2002/12/07, 7:00,11,69.9,9.4,11.9
 2002/12/07, 7:15,10.9,70,9.4,11.9
 2002/12/07, 7:30,10.8,70.3,9.4,11.9
 2002/12/07, 7:45,10.8,70.2,9.4,11.9
 2002/12/07, 8:00,11.1,70.4,9.4,11.8
 2002/12/07, 8:15,11.1,70.8,9.4,11.9
 2002/12/07, 8:30,11.8,73.7,9.4,11.9
 2002/12/07, 8:45,11.7,73.5,9.4,11.9
 2002/12/07, 9:00,11.5,73.6,9.6,11.7
 2002/12/07, 9:15,11.6,73.8,9.5,12.2
 2002/12/07, 9:30,12.1,71.9,9.5,12.3
 2002/12/07, 9:45,12.4,70.8,9.6,12.3
 2002/12/07,10:00,13.1,68.4,9.6,12.3
 2002/12/07,10:15,13.4,67.4,9.6,12.1
 2002/12/07,10:30,13.4,67.7,9.5,12.2
 2002/12/07,10:45,13.8,67.6,9.6,12.1
 2002/12/07,11:00,14.3,67.3,9.5,12.1
 2002/12/07,11:15,14.6,67.2,9.6,12.1
 2002/12/07,11:30,14.7,67.2,9.7,12
 2002/12/07,11:45,14.6,67.2,9.8,12
 2002/12/07,12:00,15.4,67.3,9.8,12
 2002/12/07,12:15,15.4,68.1,9.9,11.9
 2002/12/07,12:30,14.9,69.3,9.8,11.9
 2002/12/07,12:45,15.1,68.4,9.9,11.9
 2002/12/07,13:00,15.1,68.5,10,11.9